Regional Weather Roundup
Issued by NWS Nashville, TN

Home | Current Version | Previous Version | Text Only | Print | Product List | Glossary On
Versions: 1 2 3 4 5 6 7 8 9 10 11 12 13 14 15 16 17 18 19 20 21 22 23 24 25 26 27
000
ASUS44 KOHX 290110
RWROHX
MIDDLE TENNESSEE HOURLY WEATHER ROUNDUP
NATIONAL WEATHER SERVICE NASHVILLE TN
800 PM CDT WED JUN 28 2017

NOTE: "FAIR" INDICATES FEW OR NO CLOUDS BELOW 12,000 FEET WITH
NO SIGNIFICANT WEATHER AND/OR OBSTRUCTIONS TO VISIBILITY.

* THESE REPORTS ARE NOT UNDER NWS QUALITY CONTROL AND MAY NOT
  REPORT WEATHER SUCH AS PRECIPITATION AND FOG.


TNZ005>011-023>034-057-059-062>066-078-080-290200
...NORTHERN MIDDLE TENNESSEE...

CITY           SKY/WX    TMP DP  RH WIND       PRES   REMARKS
CLARKSVILLE    CLEAR     79  62  56 S5        30.01S
CROSSVILLE     CLEAR     72  56  57 S3        30.14R
GALLATIN       CLEAR     79  63  57 CALM      30.06S
DICKSON        CLEAR     78  63  60 SE5       30.04R
NASHVILLE      MOCLDY    81  59  47 S8        30.04S
PORTLAND       CLEAR     77  61  57 SE3       30.04S
SMYRNA         CLEAR     80  60  50 CALM      30.05S
SPARTA         CLEAR     73  63  68 CALM      30.07F
SPRINGFIELD    CLEAR     75  64  69 CALM      30.02F
WEST NASHVILLE PTCLDY    82  59  44 S6        30.01S
$$
TNZ056-058-060-061-075>077-079-093>097-290200
...SOUTHERN MIDDLE TENNESSEE...

CITY           SKY/WX    TMP DP  RH WIND       PRES   REMARKS
COLUMBIA       CLEAR     79  64  61 SE3       30.02S
FAYETTEVILLE   CLEAR     79  63  57 S5        30.06S
MCMINNVILLE    CLEAR     75  61  60 CALM      30.09S
MURFREESBORO   CLEAR     81  58  45 S6        30.04S
PULASKI        CLEAR     79  64  61 S5        30.04S
SHELBYVILLE    CLEAR     77  64  65 SE3       30.05F
TULLAHOMA        N/A     79  57  47 SE5       30.08F
WINCHESTER     CLEAR     77  63  61 S3        30.08S
$$


...KEY TO REMARKS...
VSB - VISIBILITY IN MILES
WCI - WIND CHILL INDEX
HX  - HEAT INDEX





USA.gov is the U.S. government's official web portal to all federal, state and local government web resources and services.